Flag for U.S.A. Weather past 2 weeks in Newark, New Jersey, U.S.A.

Now
66 °F

Passing clouds.


Feels Like: 66 °F
Forecast: 62 / 78 °F
Wind: 10 mph from North

Location: Newark International Airport

Current Time: Aug 29, 2014 at 1:51:29 AM

Latest Report: Aug 29, 2014 at 12:51 AM


Visibility: 10 mi

Pressure: 30.07 "Hg

Humidity: 52%

Dew point: 48 °F

Location of NewarkLocation

Historic Weather in Newark — Graph

°F

Newark temperature yesterday

Maximum temperature yesterday: 82 °F (at 3:51 PM)
Minimum temperature yesterday: 67 °F (at 11:51 PM)
Average temperature yesterday: 75 °F

Past Weeks' High & Low Weather Summary

 TemperatureHumidityPressure
High92 °F (Aug 27, 1:51 PM)90% (Aug 22, 12:51 AM)30.18 "Hg (Aug 22, 12:51 AM)
Low58 °F (Aug 16, 6:51 AM)32% (Aug 28, 3:51 PM)29.79 "Hg (Aug 14, 12:51 AM)
Average74 °F60%29.98 "Hg
* Reported Aug 14 12:51 AM — Aug 29 12:51 AM, Newark, Weather by CustomWeather, © 2014

Note: Actual official high and low records may vary slightly from our data, if they occured in-between our weather recording intervals... More about our weather records

Advertising

Newark weather history for previous 24 hours

 ConditionsComfort  
Time TempWeatherWind HumidityBarometerVisibility
12:51 AM
Aug 29
66 °FPassing clouds.10 mph52%30.07 "Hg10 mi
11:51 PM
Aug 28
67 °FPassing clouds.12 mph49%30.06 "Hg10 mi
10:51 PM68 °FPassing clouds.10 mph45%30.05 "Hg10 mi
9:51 PM70 °FPassing clouds.17 mph44%30.03 "Hg10 mi
8:51 PM73 °FPassing clouds.15 mph43%30.00 "Hg10 mi
7:51 PM75 °FScattered clouds.16 mph40%29.96 "Hg10 mi
6:51 PM78 °FScattered clouds.17 mph35%29.93 "Hg10 mi
5:51 PM80 °FScattered clouds.15 mph34%29.92 "Hg10 mi
4:51 PM80 °FPassing clouds.16 mph34%29.90 "Hg10 mi
3:51 PM82 °FPassing clouds.18 mph32%29.89 "Hg10 mi
2:51 PM81 °FPassing clouds.16 mph34%29.88 "Hg10 mi
1:51 PM81 °FPassing clouds.14 mph38%29.89 "Hg10 mi
12:51 PM80 °FPassing clouds.14 mph41%29.89 "Hg10 mi
11:51 AM77 °FPassing clouds.14 mph47%29.90 "Hg10 mi
10:51 AM76 °FPassing clouds.12 mph48%29.91 "Hg10 mi
9:51 AM74 °FScattered clouds.13 mph52%29.91 "Hg10 mi
8:51 AM72 °FScattered clouds.16 mph55%29.91 "Hg10 mi
7:51 AM71 °FScattered clouds.14 mph55%29.90 "Hg10 mi
6:51 AM70 °FPassing clouds.9 mph57%29.88 "Hg10 mi
5:51 AM71 °FPassing clouds.10 mph57%29.87 "Hg10 mi
4:51 AM73 °FPassing clouds.15 mph55%29.86 "Hg10 mi
3:51 AM75 °FPassing clouds.7 mph58%29.84 "Hg10 mi
2:51 AM77 °FPassing clouds.15 mph69%29.84 "Hg10 mi
1:51 AM78 °FPassing clouds.10 mph74%29.85 "Hg10 mi
Weather by CustomWeather, © 2014

See weather overviewHow to use our weather pages